User: anonymous   Login
Location: Unspecified
(0.0000°N, 0.0000°E)
Time: 18:21:38
(UTC+00:00)
Language:

STARLINK-3638 - Orbit

View from above orbital plane
View from above orbital plane
View from above satellite
View from above satellite

Ground track
Ground track

The orbit is defined by the following mean orbital elements,

1 51786U          26145.03152610 +.00000000 +00000-0 -63043-4 0 00007
2 51786  53.2123   6.4078 0001787  86.4414 273.6783 15.08844594    04
Epoch (UTC): 25 May 2026 00:45:23
Eccentricity: 0.0001787
inclination: 53.2123°
perigee height: 538 km
apogee height: 541 km
right ascension of ascending node: 6.4078°
argument of perigee: 86.4414°
revolutions per day: 15.08844594
mean anomaly at epoch: 273.6783°

The dashed part of the orbit path shows where the satellite is in the earth's shadow,  

DLR